User: anonymous   Login
Location: Unspecified
(0.0000°N, 0.0000°E)
Time: 06:54:33
(UTC+00:00)
Language:

TET - Orbit

View from above orbital plane
View from above orbital plane
View from above satellite
View from above satellite

Ground track
Ground track

The orbit data is extracted from the following two-line orbital elements,

1 38710U 12039D   18113.92687246 +.00002914 +00000-0 +58885-4 0  9996
2 38710 097.5866 088.5575 0002657 125.4525 234.6973 15.47383707322268
Epoch (UTC): 23 April 2018 22:14:41
Eccentricity: 0.0002657
inclination: 97.5866°
perigee height: 422 km
apogee height: 426 km
right ascension of ascending node: 88.5575°
argument of perigee: 125.4525°
revolutions per day: 15.47383707
mean anomaly at epoch: 234.6973°
orbit number at epoch: 32226

The dashed part of the orbit path shows where the satellite is in the earth's shadow,  

DLR